Hourly Data Report for October 16, 2014

All times are specified in Local Standard Time (LST). Add 1 hour to adjust for Daylight Saving Time where and when it is observed.

PETAWAWA AWOS 2
ONTARIO

45°57'00.000" N
77°19'00.000" W
130.10 m
6106396
71625
YWA

Download Data

Hourly Data (October 2014)
Hourly Data Report for October 16, 2014
Temp Definition
°C
Dew Point Temp Definition
°C
Rel Hum Definition
%
Wind Dir Definition
10's deg

Wind Spd Definition
km/h
Visibility Definition
km
Stn Press Definition
kPa
Hmdx Definition


Wind Chill Definition


Weather Definition


TIME
00:00 16.4 14.7 90   0 1.1 99.41     LegendNANA
01:00 16.1 14.4 90   0 0.2 99.39     LegendNANA
02:00 16.4 14.6 89 1 4 5.6 99.31     LegendNANA
03:00 16.0 14.2 89   0 3.1 99.25     LegendNANA
04:00 16.1 14.3 89   0 0.8 99.24     LegendNANA
05:00 16.1 14.3 89 23 4 8.0 99.21     LegendNANA
06:00 16.2 14.4 89   0 11.3 99.19     LegendNANA
07:00 16.3 14.4 88 2 6 2.9 99.08     Rain
08:00 16.7 14.9 89   0 9.7 99.10     Rain
09:00 17.4 15.2 87 16 4 14.5 99.01     Rain
10:00 18.2 15.7 85 10 15 14.5 98.84     Rain
11:00 18.3 15.8 85 11 9 14.5 98.84     LegendNANA
12:00 18.7 15.9 84 14 11 14.5 98.76     Rain
13:00 18.4 15.9 85 13 9 14.5 98.67     LegendNANA
14:00 18.5 16.1 86 13 11 14.5 98.57     Drizzle
15:00 19.1 16.0 82 13 13 14.5 98.53     LegendNANA
16:00 19.4 16.0 81 13 7 14.5 98.49     LegendNANA
17:00
18:00 18.6 15.5 82 12 7 14.5 98.42     LegendNANA
19:00 18.7 15.8 83 21 6 14.5 98.41     Rain
20:00 17.6 14.6 83 18 6 14.5 98.38     Rain
21:00 16.7 14.0 84 19 4 14.5 98.27     LegendNANA
22:00 16.2 13.8 86 18 6 14.5 98.30     LegendNANA
23:00 15.6 12.7 83 20 6 14.5 98.31     LegendNANA

Notes on Data Quality.

Legend

  • E = Estimated
  • M = Missing
  • NA = Not Available
  • ‡ = Partner data that is not subject to review by the National Climate Archives
Date modified: